Dew Point Data


Current

Temp 45.0 F. Dew Point 43.0 F.


Dew Point Comfort Scale

dewpoints

Date, Time Temperature Dew Point
Sat Nov 11 00:08:05 2017 27.0 F. 25.0 F.
Sat Nov 11 01:08:04 2017 28.0 F. 25.0 F.
Sat Nov 11 02:08:05 2017 28.0 F. 25.0 F.
Sat Nov 11 03:08:04 2017 27.0 F. 24.1 F.
Sat Nov 11 04:08:05 2017 27.0 F. 24.1 F.
Sat Nov 11 05:08:05 2017 27.0 F. 24.1 F.
Sat Nov 11 06:08:05 2017 27.0 F. 24.1 F.
Sat Nov 11 07:08:05 2017 28.0 F. 25.0 F.
Sat Nov 11 08:08:04 2017 30.0 F. 26.1 F.
Sat Nov 11 09:08:04 2017 33.0 F. 26.1 F.
Sat Nov 11 10:08:04 2017 37.0 F. 26.1 F.
Sat Nov 11 11:08:04 2017 42.0 F. 27.0 F.
Sat Nov 11 12:08:04 2017 46.0 F. 28.0 F.
Sat Nov 11 13:08:05 2017 48.0 F. 27.0 F.
Sat Nov 11 14:08:04 2017 49.0 F. 28.0 F.
Sat Nov 11 15:08:05 2017 49.0 F. 28.0 F.
Sat Nov 11 16:08:05 2017 49.0 F. 28.0 F.
Sat Nov 11 17:08:05 2017 45.0 F. 28.9 F.
Sat Nov 11 18:08:05 2017 45.0 F. 30.0 F.
Sat Nov 11 19:08:04 2017 45.0 F. 30.0 F.
Sat Nov 11 20:08:04 2017 44.0 F. 30.9 F.
Sat Nov 11 21:08:04 2017 42.0 F. 33.1 F.
Sat Nov 11 22:08:05 2017 41.0 F. 34.0 F.
Sat Nov 11 23:08:04 2017 40.0 F. 36.0 F.
Sun Nov 12 00:08:04 2017 41.0 F. 37.0 F.
Sun Nov 12 01:08:04 2017 43.0 F. 37.0 F.
Sun Nov 12 02:08:05 2017 43.0 F. 37.0 F.
Sun Nov 12 03:08:05 2017 43.0 F. 37.0 F.
Sun Nov 12 04:08:04 2017 43.0 F. 37.0 F.
Sun Nov 12 05:08:04 2017 43.0 F. 37.9 F.
Sun Nov 12 06:08:04 2017 43.0 F. 39.9 F.
Sun Nov 12 07:08:04 2017 43.0 F. 39.9 F.
Sun Nov 12 08:08:05 2017 44.0 F. 39.9 F.
Sun Nov 12 09:08:05 2017 45.0 F. 39.9 F.
Sun Nov 12 10:08:04 2017 45.0 F. 39.9 F.
Sun Nov 12 11:08:04 2017 46.0 F. 41.0 F.
Sun Nov 12 12:08:05 2017 52.0 F. 44.1 F.
Sun Nov 12 13:08:05 2017 54.0 F. 45.0 F.
Sun Nov 12 14:08:05 2017 53.0 F. 45.0 F.
Sun Nov 12 15:08:05 2017 52.0 F. 45.0 F.
Sun Nov 12 16:08:04 2017 51.0 F. 45.0 F.
Sun Nov 12 17:08:04 2017 50.0 F. 45.0 F.
Sun Nov 12 18:08:04 2017 49.0 F. 44.1 F.
Sun Nov 12 19:08:04 2017 48.0 F. 43.0 F.
Sun Nov 12 20:08:05 2017 48.0 F. 41.0 F.
Sun Nov 12 21:08:05 2017 46.0 F. 39.9 F.
Sun Nov 12 22:08:04 2017 44.0 F. 37.9 F.
Sun Nov 12 23:08:05 2017 44.0 F. 37.9 F.
Mon Nov 13 00:08:05 2017 44.0 F. 37.9 F.
Mon Nov 13 01:08:04 2017 43.0 F. 37.9 F.
Mon Nov 13 02:08:04 2017 43.0 F. 37.9 F.
Mon Nov 13 03:08:04 2017 42.0 F. 37.0 F.
Mon Nov 13 04:08:05 2017 41.0 F. 36.0 F.
Mon Nov 13 05:08:04 2017 41.0 F. 36.0 F.
Mon Nov 13 06:08:05 2017 40.0 F. 36.0 F.
Mon Nov 13 07:08:05 2017 40.0 F. 35.1 F.
Mon Nov 13 08:08:10 2017 40.0 F. 35.1 F.
Mon Nov 13 09:08:04 2017 41.0 F. 35.1 F.
Mon Nov 13 10:08:05 2017 43.0 F. 35.1 F.
Mon Nov 13 11:08:04 2017 44.0 F. 34.0 F.
Mon Nov 13 12:08:05 2017 44.0 F. 35.1 F.
Mon Nov 13 13:08:05 2017 47.0 F. 35.1 F.
Mon Nov 13 14:08:05 2017 48.0 F. 35.1 F.
Mon Nov 13 15:08:04 2017 50.0 F. 35.1 F.
Mon Nov 13 16:08:04 2017 50.0 F. 35.1 F.
Mon Nov 13 17:08:05 2017 44.0 F. 36.0 F.
Mon Nov 13 18:08:04 2017 37.0 F. 34.0 F.
Mon Nov 13 19:08:04 2017 36.0 F. 34.0 F.
Mon Nov 13 20:08:04 2017 36.0 F. 35.1 F.
Mon Nov 13 21:08:04 2017 33.0 F. 33.1 F.
Mon Nov 13 22:08:05 2017 34.0 F. 33.1 F.
Mon Nov 13 23:08:04 2017 36.0 F. 35.1 F.
Tue Nov 14 00:08:05 2017 36.0 F. 36.0 F.
Tue Nov 14 01:08:04 2017 34.0 F. 34.0 F.
Tue Nov 14 02:08:05 2017 33.0 F. 33.1 F.
Tue Nov 14 03:08:04 2017 31.0 F. 30.9 F.
Tue Nov 14 04:08:04 2017 30.0 F. 30.0 F.
Tue Nov 14 05:08:05 2017 28.0 F. 28.0 F.
Tue Nov 14 06:08:04 2017 28.0 F. 28.0 F.
Tue Nov 14 07:08:05 2017 29.0 F. 28.9 F.
Tue Nov 14 08:08:04 2017 33.0 F. 33.1 F.
Tue Nov 14 09:08:04 2017 41.0 F. 37.9 F.
Tue Nov 14 10:08:05 2017 46.0 F. 37.9 F.
Tue Nov 14 11:08:04 2017 49.0 F. 39.0 F.
Tue Nov 14 12:08:05 2017 53.0 F. 39.0 F.
Tue Nov 14 13:08:05 2017 54.0 F. 37.0 F.
Tue Nov 14 14:08:04 2017 55.0 F. 37.9 F.
Tue Nov 14 15:08:04 2017 55.0 F. 37.9 F.
Tue Nov 14 16:08:05 2017 54.0 F. 37.9 F.
Tue Nov 14 17:08:05 2017 52.0 F. 37.0 F.
Tue Nov 14 18:08:05 2017 51.0 F. 39.0 F.
Tue Nov 14 19:08:04 2017 49.0 F. 39.0 F.
Tue Nov 14 20:08:04 2017 49.0 F. 39.0 F.
Tue Nov 14 21:08:06 2017 46.0 F. 39.0 F.
Tue Nov 14 22:08:05 2017 49.0 F. 39.0 F.
Tue Nov 14 23:08:04 2017 49.0 F. 39.0 F.
Wed Nov 15 00:08:05 2017 50.0 F. 39.0 F.
Wed Nov 15 01:08:05 2017 49.0 F. 39.0 F.
Wed Nov 15 02:08:05 2017 51.0 F. 39.0 F.
Wed Nov 15 03:08:04 2017 51.0 F. 39.0 F.
Wed Nov 15 04:08:04 2017 52.0 F. 39.0 F.
Wed Nov 15 05:08:05 2017 52.0 F. 43.0 F.
Wed Nov 15 06:08:04 2017 53.0 F. 43.0 F.
Wed Nov 15 07:08:05 2017 53.0 F. 43.0 F.
Wed Nov 15 08:08:04 2017 50.0 F. 46.9 F.
Wed Nov 15 09:08:05 2017 50.0 F. 48.0 F.
Wed Nov 15 10:08:05 2017 51.0 F. 48.9 F.
Wed Nov 15 11:08:05 2017 51.0 F. 50.0 F.
Wed Nov 15 12:08:04 2017 51.0 F. 51.1 F.
Wed Nov 15 13:08:04 2017 52.0 F. 51.1 F.
Wed Nov 15 14:08:05 2017 53.0 F. 52.0 F.
Wed Nov 15 15:08:05 2017 53.0 F. 53.1 F.
Wed Nov 15 16:08:04 2017 55.0 F. 53.1 F.
Wed Nov 15 17:08:04 2017 50.0 F. 50.0 F.
Wed Nov 15 18:08:05 2017 46.0 F. 46.0 F.
Wed Nov 15 19:08:04 2017 44.0 F. 44.1 F.
Wed Nov 15 20:08:05 2017 41.0 F. 41.0 F.
Wed Nov 15 21:08:07 2017 37.0 F. 37.0 F.
Wed Nov 15 22:08:04 2017 37.0 F. 37.0 F.
Wed Nov 15 23:08:05 2017 39.0 F. 39.0 F.
Thu Nov 16 00:08:05 2017 39.0 F. 39.0 F.
Thu Nov 16 01:08:04 2017 40.0 F. 39.0 F.
Thu Nov 16 02:08:05 2017 38.0 F. 37.0 F.
Thu Nov 16 03:08:04 2017 39.0 F. 36.0 F.
Thu Nov 16 04:08:05 2017 38.0 F. 35.1 F.
Thu Nov 16 05:08:04 2017 36.0 F. 33.1 F.
Thu Nov 16 06:08:04 2017 33.0 F. 28.9 F.
Thu Nov 16 07:08:04 2017 31.0 F. 27.0 F.
Thu Nov 16 08:08:05 2017 34.0 F. 28.9 F.
Thu Nov 16 09:08:04 2017 36.0 F. 28.9 F.
Thu Nov 16 10:08:05 2017 38.0 F. 30.0 F.
Thu Nov 16 11:08:05 2017 40.0 F. 30.0 F.
Thu Nov 16 12:08:05 2017 41.0 F. 30.9 F.
Thu Nov 16 13:08:05 2017 44.0 F. 32.0 F.
Thu Nov 16 14:08:04 2017 45.0 F. 32.0 F.
Thu Nov 16 15:08:05 2017 46.0 F. 33.1 F.
Thu Nov 16 16:08:05 2017 45.0 F. 33.1 F.
Thu Nov 16 17:08:04 2017 41.0 F. 33.1 F.
Thu Nov 16 18:08:05 2017 37.0 F. 32.0 F.
Thu Nov 16 19:08:05 2017 35.0 F. 32.0 F.
Thu Nov 16 20:08:05 2017 32.0 F. 30.0 F.
Thu Nov 16 21:08:04 2017 32.0 F. 30.0 F.
Thu Nov 16 22:08:05 2017 31.0 F. 30.0 F.
Thu Nov 16 23:08:05 2017 33.0 F. 33.1 F.
Fri Nov 17 00:08:05 2017 33.0 F. 33.1 F.
Fri Nov 17 01:08:05 2017 33.0 F. 33.1 F.
Fri Nov 17 02:08:05 2017 33.0 F. 33.1 F.
Fri Nov 17 03:08:05 2017 33.0 F. 32.0 F.
Fri Nov 17 04:08:04 2017 29.0 F. 28.9 F.
Fri Nov 17 05:08:04 2017 30.0 F. 30.0 F.
Fri Nov 17 06:08:05 2017 28.0 F. 28.0 F.
Fri Nov 17 07:08:05 2017 30.0 F. 30.0 F.
Fri Nov 17 08:08:05 2017 34.0 F. 34.0 F.
Fri Nov 17 09:08:04 2017 39.0 F. 37.0 F.
Fri Nov 17 10:08:04 2017 44.0 F. 37.9 F.
Fri Nov 17 11:08:04 2017 46.0 F. 39.0 F.
Fri Nov 17 12:08:04 2017 50.0 F. 41.0 F.
Fri Nov 17 13:08:05 2017 52.0 F. 42.1 F.
Fri Nov 17 14:08:04 2017 54.0 F. 43.0 F.
Fri Nov 17 15:08:05 2017 56.0 F. 45.0 F.
Fri Nov 17 16:08:05 2017 56.0 F. 45.0 F.
Fri Nov 17 17:08:06 2017 58.0 F. 46.0 F.
Fri Nov 17 18:08:05 2017 59.0 F. 46.9 F.
Fri Nov 17 19:08:04 2017 60.0 F. 48.0 F.
Fri Nov 17 20:08:05 2017 61.0 F. 48.9 F.
Fri Nov 17 21:08:05 2017 63.0 F. 52.0 F.
Fri Nov 17 22:08:04 2017 63.0 F. 54.0 F.
Fri Nov 17 23:08:04 2017 64.0 F. 55.0 F.
Sat Nov 18 00:08:04 2017 65.0 F. 55.9 F.
Sat Nov 18 01:08:05 2017 65.0 F. 55.9 F.
Sat Nov 18 02:08:05 2017 65.0 F. 57.0 F.
Sat Nov 18 03:08:05 2017 65.0 F. 57.9 F.
Sat Nov 18 04:08:04 2017 66.0 F. 59.0 F.
Sat Nov 18 05:08:05 2017 67.0 F. 61.0 F.
Sat Nov 18 06:08:04 2017 67.0 F. 62.1 F.
Sat Nov 18 07:08:05 2017 65.0 F. 63.0 F.
Sat Nov 18 08:08:04 2017 66.0 F. 63.0 F.
Sat Nov 18 09:08:04 2017 66.0 F. 63.0 F.
Sat Nov 18 10:08:04 2017 66.0 F. 63.0 F.
Sat Nov 18 11:08:05 2017 67.0 F. 63.0 F.
Sat Nov 18 12:08:05 2017 70.0 F. 64.0 F.
Sat Nov 18 13:08:05 2017 51.0 F. 50.0 F.
Sat Nov 18 14:08:04 2017 48.0 F. 46.0 F.
Sat Nov 18 15:08:04 2017 45.0 F. 43.0 F.